Wetterdaten: Freitag, 18.10.2013
Datum Zeit Temperatur Luftfeuchte Luftdruck Regen Wind Richtung Richtung Taupunkt Windchill Windben
18.10.2013 00:00 5,4 C 87 % 1020,0 hPa 0,0 l/m 1,0 km/h (0 Bft) N 360 3,4 C 5,6 C 1,8 km/h (1 Bft)
18.10.2013 00:05 5,2 C 87 % 1020,0 hPa 0,0 l/m 0,8 km/h (0 Bft) NO 45 3,2 C 5,3 C 0,0 km/h (0 Bft)
18.10.2013 00:10 5,3 C 87 % 1019,9 hPa 0,0 l/m 0,8 km/h (0 Bft) O 90 3,3 C 5,2 C 2,1 km/h (1 Bft)
18.10.2013 00:15 5,2 C 87 % 1019,9 hPa 0,0 l/m 1,4 km/h (1 Bft) O 90 3,2 C 5,2 C 0,0 km/h (0 Bft)
18.10.2013 00:20 5,2 C 88 % 1019,9 hPa 0,0 l/m 1,4 km/h (1 Bft) O-NO 67 3,4 C 5,2 C 3,5 km/h (1 Bft)
18.10.2013 00:25 5,4 C 88 % 1019,9 hPa 0,0 l/m 1,4 km/h (1 Bft) NO 45 3,6 C 5,2 C 2,4 km/h (1 Bft)
18.10.2013 00:30 4,7 C 87 % 1019,8 hPa 0,0 l/m 1,1 km/h (1 Bft) W-SW 247 2,7 C 5,0 C 4,2 km/h (1 Bft)
18.10.2013 00:35 4,4 C 87 % 1019,8 hPa 0,0 l/m 1,3 km/h (1 Bft) O 90 2,4 C 4,5 C 3,9 km/h (1 Bft)
18.10.2013 00:40 4,4 C 87 % 1019,8 hPa 0,0 l/m 1,9 km/h (1 Bft) W-SW 247 2,4 C 4,4 C 0,0 km/h (0 Bft)
18.10.2013 00:45 4,5 C 87 % 1019,8 hPa 0,0 l/m 2,1 km/h (1 Bft) O-NO 67 2,5 C 4,1 C 3,4 km/h (1 Bft)
18.10.2013 00:50 4,3 C 88 % 1019,9 hPa 0,0 l/m 1,4 km/h (1 Bft) O 90 2,5 C 3,8 C 0,0 km/h (0 Bft)
18.10.2013 00:55 4,5 C 88 % 1019,9 hPa 0,0 l/m 1,3 km/h (1 Bft) O-SO 112 2,7 C 3,6 C 1,8 km/h (1 Bft)
18.10.2013 01:00 4,5 C 88 % 1019,9 hPa 0,0 l/m 1,8 km/h (1 Bft) O 90 2,7 C 3,6 C 6,1 km/h (2 Bft)
18.10.2013 01:05 4,6 C 88 % 1019,9 hPa 0,0 l/m 2,1 km/h (1 Bft) O-SO 112 2,8 C 3,8 C 0,0 km/h (0 Bft)
18.10.2013 01:10 4,1 C 88 % 1019,9 hPa 0,0 l/m 1,8 km/h (1 Bft) O-NO 67 2,3 C 3,7 C 0,0 km/h (0 Bft)
18.10.2013 01:15 3,6 C 88 % 1019,9 hPa 0,0 l/m 0,8 km/h (0 Bft) W-NW 292 1,8 C 3,5 C 0,0 km/h (0 Bft)
18.10.2013 01:20 3,2 C 88 % 1019,9 hPa 0,0 l/m 0,0 km/h (0 Bft) N 360 1,4 C 3,1 C 0,0 km/h (0 Bft)
18.10.2013 01:25 3,1 C 88 % 1019,9 hPa 0,0 l/m 0,2 km/h (0 Bft) NO 45 1,3 C 3,0 C 2,4 km/h (1 Bft)
18.10.2013 01:30 4,7 C 89 % 1020,2 hPa 0,0 l/m 1,3 km/h (1 Bft) O 90 3,0 C 3,4 C 3,9 km/h (1 Bft)
18.10.2013 01:35 5,4 C 89 % 1020,2 hPa 0,0 l/m 2,9 km/h (1 Bft) O-NO 67 3,7 C 3,8 C 4,8 km/h (1 Bft)
18.10.2013 01:40 5,4 C 88 % 1020,2 hPa 0,0 l/m 3,5 km/h (1 Bft) O-SO 112 3,6 C 4,1 C 4,5 km/h (1 Bft)
18.10.2013 01:45 5,3 C 88 % 1020,2 hPa 0,0 l/m 2,9 km/h (1 Bft) NO 45 3,5 C 4,7 C 4,2 km/h (1 Bft)
18.10.2013 01:50 5,4 C 88 % 1020,2 hPa 0,0 l/m 2,3 km/h (1 Bft) W-SW 247 3,6 C 4,9 C 1,9 km/h (1 Bft)
18.10.2013 01:55 5,4 C 88 % 1020,2 hPa 0,0 l/m 2,4 km/h (1 Bft) N-NO 22 3,6 C 5,0 C 3,7 km/h (1 Bft)
18.10.2013 02:00 5,0 C 88 % 1020,2 hPa 0,0 l/m 1,4 km/h (1 Bft) NO 45 3,2 C 5,0 C 0,0 km/h (0 Bft)
18.10.2013 02:05 5,0 C 88 % 1020,2 hPa 0,0 l/m 0,8 km/h (0 Bft) O 90 3,2 C 4,9 C 2,1 km/h (1 Bft)
18.10.2013 02:10 4,5 C 88 % 1020,2 hPa 0,0 l/m 0,5 km/h (0 Bft) O 90 2,7 C 4,7 C 2,1 km/h (1 Bft)
18.10.2013 02:15 4,5 C 88 % 1020,2 hPa 0,0 l/m 0,3 km/h (0 Bft) O 90 2,7 C 4,5 C 0,0 km/h (0 Bft)
18.10.2013 02:20 4,2 C 88 % 1020,2 hPa 0,0 l/m 0,3 km/h (0 Bft) N 360 2,4 C 4,4 C 1,8 km/h (1 Bft)
18.10.2013 02:25 3,8 C 88 % 1020,2 hPa 0,0 l/m 0,2 km/h (0 Bft) O-NO 67 2,0 C 4,1 C 2,4 km/h (1 Bft)
18.10.2013 02:30 4,5 C 89 % 1020,4 hPa 0,0 l/m 1,0 km/h (0 Bft) O-SO 112 2,8 C 4,3 C 0,0 km/h (0 Bft)
18.10.2013 02:35 4,7 C 89 % 1020,4 hPa 0,0 l/m 1,4 km/h (1 Bft) O-SO 112 3,0 C 4,4 C 0,0 km/h (0 Bft)
18.10.2013 02:40 5,1 C 89 % 1020,4 hPa 0,0 l/m 1,6 km/h (1 Bft) O 90 3,4 C 4,6 C 0,0 km/h (0 Bft)
18.10.2013 02:45 5,3 C 89 % 1020,4 hPa 0,0 l/m 1,6 km/h (1 Bft) S 180 3,6 C 4,7 C 2,9 km/h (1 Bft)
18.10.2013 02:50 5,4 C 89 % 1020,4 hPa 0,0 l/m 1,6 km/h (1 Bft) N-NW 337 3,7 C 5,0 C 3,7 km/h (1 Bft)
18.10.2013 02:55 5,5 C 89 % 1020,4 hPa 0,0 l/m 2,3 km/h (1 Bft) O-NO 67 3,8 C 5,3 C 3,4 km/h (1 Bft)
18.10.2013 03:00 5,5 C 89 % 1020,4 hPa 0,0 l/m 2,7 km/h (1 Bft) O 90 3,8 C 5,5 C 6,8 km/h (2 Bft)
18.10.2013 03:05 5,7 C 89 % 1020,4 hPa 0,0 l/m 2,4 km/h (1 Bft) O 90 4,0 C 5,6 C 2,4 km/h (1 Bft)
18.10.2013 03:10 5,6 C 89 % 1020,3 hPa 0,0 l/m 2,1 km/h (1 Bft) S 180 3,9 C 5,6 C 2,7 km/h (1 Bft)
18.10.2013 03:15 5,9 C 89 % 1020,3 hPa 0,0 l/m 1,4 km/h (1 Bft) S-SO 157 4,2 C 5,6 C 1,6 km/h (1 Bft)
18.10.2013 03:20 6,1 C 88 % 1020,3 hPa 0,0 l/m 2,3 km/h (1 Bft) O 90 4,3 C 5,7 C 4,8 km/h (1 Bft)
18.10.2013 03:25 6,1 C 88 % 1020,3 hPa 0,0 l/m 2,3 km/h (1 Bft) O 90 4,3 C 5,7 C 1,6 km/h (1 Bft)
18.10.2013 03:30 6,1 C 88 % 1020,4 hPa 0,0 l/m 1,6 km/h (1 Bft) O 90 4,3 C 5,7 C 5,0 km/h (1 Bft)
18.10.2013 03:35 6,2 C 87 % 1020,4 hPa 0,0 l/m 1,6 km/h (1 Bft) SO 135 4,2 C 5,7 C 1,8 km/h (1 Bft)
18.10.2013 03:40 5,7 C 88 % 1020,4 hPa 0,0 l/m 1,1 km/h (1 Bft) S-SO 157 3,9 C 5,6 C 0,0 km/h (0 Bft)
18.10.2013 03:45 5,6 C 88 % 1020,4 hPa 0,0 l/m 0,8 km/h (0 Bft) SO 135 3,8 C 5,5 C 3,1 km/h (1 Bft)
18.10.2013 03:50 5,6 C 88 % 1020,1 hPa 0,0 l/m 1,6 km/h (1 Bft) SO 135 3,8 C 5,6 C 3,5 km/h (1 Bft)
18.10.2013 03:55 5,3 C 88 % 1020,1 hPa 0,0 l/m 1,4 km/h (1 Bft) S 180 3,5 C 5,7 C 0,0 km/h (0 Bft)
18.10.2013 04:00 5,4 C 88 % 1020,1 hPa 0,0 l/m 1,0 km/h (0 Bft) O 90 3,6 C 5,5 C 1,8 km/h (1 Bft)
18.10.2013 04:03 5,4 C 88 % 1020,1 hPa 0,0 l/m 0,6 km/h (0 Bft) S 180 3,6 C 5,4 C 0,0 km/h (0 Bft)
18.10.2013 04:05 5,4 C 88 % 1020,1 hPa 0,0 l/m 0,6 km/h (0 Bft) S 180 3,6 C 5,4 C 0,0 km/h (0 Bft)
18.10.2013 04:10 4,5 C 88 % 1020,1 hPa 0,0 l/m 0,3 km/h (0 Bft) O 90 2,7 C 5,0 C 0,0 km/h (0 Bft)
18.10.2013 04:15 4,5 C 88 % 1020,1 hPa 0,0 l/m 1,1 km/h (1 Bft) NO 45 2,7 C 4,7 C 3,9 km/h (1 Bft)
18.10.2013 04:20 5,3 C 88 % 1020,1 hPa 0,0 l/m 1,9 km/h (1 Bft) NO 45 3,5 C 4,9 C 2,1 km/h (1 Bft)
18.10.2013 04:25 5,0 C 88 % 1020,1 hPa 0,0 l/m 1,4 km/h (1 Bft) SO 135 3,2 C 5,0 C 0,0 km/h (0 Bft)
18.10.2013 04:30 4,5 C 88 % 1020,2 hPa 0,0 l/m 0,3 km/h (0 Bft) O 90 2,7 C 4,8 C 0,0 km/h (0 Bft)
18.10.2013 04:35 3,8 C 88 % 1020,2 hPa 0,0 l/m 0,2 km/h (0 Bft) S 180 2,0 C 4,7 C 0,0 km/h (0 Bft)
18.10.2013 04:40 3,6 C 88 % 1020,2 hPa 0,0 l/m 0,0 km/h (0 Bft) S 180 1,8 C 4,1 C 0,0 km/h (0 Bft)
18.10.2013 04:45 3,6 C 89 % 1020,2 hPa 0,0 l/m 0,0 km/h (0 Bft) O 90 2,0 C 3,9 C 0,0 km/h (0 Bft)
18.10.2013 04:50 3,3 C 89 % 1020,0 hPa 0,0 l/m 0,2 km/h (0 Bft) S-SW 202 1,7 C 3,6 C 2,4 km/h (1 Bft)
18.10.2013 04:55 3,0 C 89 % 1020,0 hPa 0,0 l/m 0,3 km/h (0 Bft) W-NW 292 1,4 C 3,2 C 0,0 km/h (0 Bft)
18.10.2013 05:00 3,0 C 89 % 1020,0 hPa 0,0 l/m 0,5 km/h (0 Bft) NO 45 1,4 C 2,9 C 2,4 km/h (1 Bft)
18.10.2013 05:05 2,9 C 90 % 1020,0 hPa 0,0 l/m 0,3 km/h (0 Bft) N-NO 22 1,4 C 2,7 C 1,6 km/h (1 Bft)
18.10.2013 05:10 2,7 C 90 % 1020,1 hPa 0,0 l/m 0,2 km/h (0 Bft) SO 135 1,2 C 2,6 C 0,0 km/h (0 Bft)
18.10.2013 05:15 3,1 C 90 % 1020,1 hPa 0,0 l/m 0,3 km/h (0 Bft) S 180 1,6 C 2,8 C 0,0 km/h (0 Bft)
18.10.2013 05:20 2,7 C 91 % 1020,1 hPa 0,0 l/m 0,6 km/h (0 Bft) O 90 1,4 C 3,1 C 2,1 km/h (1 Bft)
18.10.2013 05:25 4,2 C 91 % 1020,1 hPa 0,0 l/m 0,8 km/h (0 Bft) O-SO 112 2,9 C 3,6 C 0,0 km/h (0 Bft)
18.10.2013 05:30 4,9 C 92 % 1019,6 hPa 0,0 l/m 1,6 km/h (1 Bft) O-SO 112 3,7 C 4,2 C 3,2 km/h (1 Bft)
18.10.2013 05:35 5,2 C 92 % 1019,6 hPa 0,0 l/m 1,8 km/h (1 Bft) O-SO 112 4,0 C 4,5 C 3,7 km/h (1 Bft)
18.10.2013 05:40 5,0 C 92 % 1019,6 hPa 0,0 l/m 1,9 km/h (1 Bft) O 90 3,8 C 4,7 C 0,0 km/h (0 Bft)
18.10.2013 05:45 4,8 C 92 % 1019,6 hPa 0,0 l/m 1,4 km/h (1 Bft) S-SO 157 3,6 C 4,7 C 3,5 km/h (1 Bft)
18.10.2013 05:50 4,4 C 91 % 1020,1 hPa 0,0 l/m 0,6 km/h (0 Bft) O-SO 112 3,1 C 4,7 C 2,1 km/h (1 Bft)
18.10.2013 05:55 4,4 C 91 % 1020,1 hPa 0,0 l/m 0,3 km/h (0 Bft) O-SO 112 3,1 C 4,7 C 0,0 km/h (0 Bft)
18.10.2013 06:00 4,0 C 91 % 1020,1 hPa 0,0 l/m 0,3 km/h (0 Bft) O-SO 112 2,7 C 4,5 C 0,0 km/h (0 Bft)
18.10.2013 06:05 4,0 C 91 % 1020,1 hPa 0,0 l/m 0,5 km/h (0 Bft) O-NO 67 2,7 C 4,3 C 0,0 km/h (0 Bft)
18.10.2013 06:10 4,6 C 91 % 1020,2 hPa 0,0 l/m 0,2 km/h (0 Bft) O 90 3,3 C 4,4 C 1,8 km/h (1 Bft)
18.10.2013 06:15 5,2 C 91 % 1020,2 hPa 0,0 l/m 1,6 km/h (1 Bft) O-SO 112 3,9 C 4,7 C 3,7 km/h (1 Bft)
18.10.2013 06:20 5,4 C 91 % 1020,2 hPa 0,0 l/m 1,8 km/h (1 Bft) O 90 4,1 C 5,0 C 1,8 km/h (1 Bft)
18.10.2013 06:25 5,3 C 91 % 1020,2 hPa 0,0 l/m 1,0 km/h (0 Bft) O-SO 112 4,0 C 5,2 C 0,0 km/h (0 Bft)
18.10.2013 06:30 4,9 C 91 % 1020,2 hPa 0,0 l/m 0,0 km/h (0 Bft) O-SO 112 3,6 C 5,3 C 0,0 km/h (0 Bft)
18.10.2013 06:35 4,8 C 90 % 1020,2 hPa 0,0 l/m 0,0 km/h (0 Bft) O-SO 112 3,3 C 5,3 C 0,0 km/h (0 Bft)
18.10.2013 06:40 5,0 C 90 % 1020,2 hPa 0,0 l/m 0,0 km/h (0 Bft) O 90 3,5 C 5,3 C 0,0 km/h (0 Bft)
18.10.2013 06:45 5,5 C 90 % 1020,2 hPa 0,0 l/m 0,5 km/h (0 Bft) O 90 4,0 C 5,5 C 3,2 km/h (1 Bft)
18.10.2013 06:50 5,8 C 90 % 1020,2 hPa 0,0 l/m 1,0 km/h (0 Bft) O 90 4,3 C 5,6 C 0,0 km/h (0 Bft)
18.10.2013 06:55 5,6 C 90 % 1020,2 hPa 0,0 l/m 0,8 km/h (0 Bft) O 90 4,1 C 5,6 C 1,9 km/h (1 Bft)
18.10.2013 07:00 5,3 C 89 % 1020,2 hPa 0,0 l/m 0,8 km/h (0 Bft) O-NO 67 3,6 C 5,5 C 3,1 km/h (1 Bft)
18.10.2013 07:05 5,2 C 89 % 1020,2 hPa 0,0 l/m 1,9 km/h (1 Bft) NO 45 3,5 C 5,3 C 5,0 km/h (1 Bft)
18.10.2013 07:10 4,9 C 89 % 1020,2 hPa 0,0 l/m 2,7 km/h (1 Bft) O 90 3,2 C 5,1 C 1,9 km/h (1 Bft)
18.10.2013 07:15 4,8 C 89 % 1020,2 hPa 0,0 l/m 2,7 km/h (1 Bft) O 90 3,1 C 4,9 C 3,7 km/h (1 Bft)
18.10.2013 07:20 4,7 C 88 % 1020,2 hPa 0,0 l/m 2,7 km/h (1 Bft) O 90 2,9 C 4,8 C 4,0 km/h (1 Bft)
18.10.2013 07:25 4,7 C 88 % 1020,2 hPa 0,0 l/m 2,4 km/h (1 Bft) O 90 2,9 C 4,7 C 2,1 km/h (1 Bft)
18.10.2013 07:30 4,8 C 88 % 1020,0 hPa 0,0 l/m 2,3 km/h (1 Bft) O-NO 67 3,0 C 4,6 C 4,5 km/h (1 Bft)
18.10.2013 07:35 4,7 C 88 % 1020,0 hPa 0,0 l/m 2,3 km/h (1 Bft) NO 45 2,9 C 4,6 C 3,5 km/h (1 Bft)
18.10.2013 07:40 4,5 C 88 % 1020,0 hPa 0,0 l/m 2,3 km/h (1 Bft) NO 45 2,7 C 4,6 C 3,5 km/h (1 Bft)
18.10.2013 07:45 4,1 C 88 % 1020,0 hPa 0,0 l/m 2,3 km/h (1 Bft) NO 45 2,3 C 4,6 C 3,5 km/h (1 Bft)
18.10.2013 07:50 3,7 C 88 % 1020,1 hPa 0,0 l/m 0,8 km/h (0 Bft) O 90 1,9 C 3,9 C 0,0 km/h (0 Bft)
18.10.2013 07:55 3,5 C 88 % 1020,1 hPa 0,0 l/m 0,5 km/h (0 Bft) N 360 1,7 C 3,8 C 0,0 km/h (0 Bft)
18.10.2013 08:00 3,2 C 88 % 1020,1 hPa 0,0 l/m 0,2 km/h (0 Bft) NW 315 1,4 C 3,4 C 2,4 km/h (1 Bft)
18.10.2013 08:05 2,9 C 89 % 1020,1 hPa 0,0 l/m 0,2 km/h (0 Bft) W-NW 292 1,3 C 3,3 C 0,0 km/h (0 Bft)
18.10.2013 08:10 3,0 C 89 % 1020,0 hPa 0,0 l/m 0,2 km/h (0 Bft) N-NO 22 1,4 C 2,9 C 0,0 km/h (0 Bft)
18.10.2013 08:15 3,1 C 89 % 1020,0 hPa 0,0 l/m 0,2 km/h (0 Bft) W-NW 292 1,5 C 3,0 C 1,8 km/h (1 Bft)
18.10.2013 08:20 3,0 C 89 % 1020,0 hPa 0,0 l/m 0,2 km/h (0 Bft) N-NO 22 1,4 C 3,0 C 0,0 km/h (0 Bft)
18.10.2013 08:25 3,0 C 89 % 1020,0 hPa 0,0 l/m 0,0 km/h (0 Bft) W-NW 292 1,4 C 3,1 C 0,0 km/h (0 Bft)
18.10.2013 08:30 3,0 C 90 % 1020,4 hPa 0,0 l/m 0,0 km/h (0 Bft) N-NO 22 1,5 C 3,1 C 0,0 km/h (0 Bft)
18.10.2013 08:31 2,9 C 91 % 1020,4 hPa 0,0 l/m 0,0 km/h (0 Bft) NW 315 1,6 C 3,0 C 0,0 km/h (0 Bft)
18.10.2013 08:35 3,1 C 90 % 1020,4 hPa 0,0 l/m 0,2 km/h (0 Bft) N-NO 22 1,6 C 3,1 C 0,0 km/h (0 Bft)
18.10.2013 08:40 3,1 C 90 % 1020,4 hPa 0,0 l/m 0,2 km/h (0 Bft) N-NO 22 1,6 C 3,1 C 0,0 km/h (0 Bft)
18.10.2013 08:45 3,1 C 90 % 1020,4 hPa 0,0 l/m 0,0 km/h (0 Bft) N-NO 22 1,6 C 3,1 C 0,0 km/h (0 Bft)
18.10.2013 08:50 3,0 C 90 % 1020,4 hPa 0,0 l/m 0,0 km/h (0 Bft) N-NO 22 1,5 C 3,1 C 0,0 km/h (0 Bft)
18.10.2013 08:55 3,1 C 90 % 1020,4 hPa 0,0 l/m 0,0 km/h (0 Bft) N 360 1,6 C 3,1 C 1,6 km/h (1 Bft)
18.10.2013 09:00 3,5 C 91 % 1020,4 hPa 0,0 l/m 0,3 km/h (0 Bft) NO 45 2,2 C 3,2 C 0,0 km/h (0 Bft)
18.10.2013 09:05 3,5 C 91 % 1020,4 hPa 0,0 l/m 0,3 km/h (0 Bft) NO 45 2,2 C 3,2 C 0,0 km/h (0 Bft)
18.10.2013 09:10 3,6 C 91 % 1020,4 hPa 0,0 l/m 0,8 km/h (0 Bft) NO 45 2,3 C 3,5 C 2,4 km/h (1 Bft)
18.10.2013 09:15 4,2 C 91 % 1020,4 hPa 0,0 l/m 1,0 km/h (0 Bft) NO 45 2,9 C 3,9 C 0,0 km/h (0 Bft)
18.10.2013 09:20 4,3 C 91 % 1020,4 hPa 0,0 l/m 1,0 km/h (0 Bft) NO 45 3,0 C 3,9 C 0,0 km/h (0 Bft)
18.10.2013 09:25 4,2 C 91 % 1020,5 hPa 0,0 l/m 0,2 km/h (0 Bft) NO 45 2,9 C 6,9 C 0,0 km/h (0 Bft)
18.10.2013 09:30 4,5 C 91 % 1020,5 hPa 0,0 l/m 0,2 km/h (0 Bft) NO 45 3,2 C 9,0 C 2,3 km/h (1 Bft)
18.10.2013 09:35 4,7 C 91 % 1020,5 hPa 0,0 l/m 0,2 km/h (0 Bft) NO 45 3,4 C 9,1 C 1,6 km/h (1 Bft)
18.10.2013 09:40 4,7 C 91 % 1020,5 hPa 0,0 l/m 0,2 km/h (0 Bft) NO 45 3,4 C 9,1 C 1,6 km/h (1 Bft)
18.10.2013 09:45 5,2 C 91 % 1020,4 hPa 0,0 l/m 0,2 km/h (0 Bft) NO 45 3,9 C 9,1 C 1,6 km/h (1 Bft)
18.10.2013 09:50 5,6 C 91 % 1020,4 hPa 0,0 l/m 0,0 km/h (0 Bft) NO 45 4,2 C 9,1 C 0,0 km/h (0 Bft)
18.10.2013 09:55 5,9 C 91 % 1020,4 hPa 0,0 l/m 0,0 km/h (0 Bft) NO 45 4,5 C 9,1 C 0,0 km/h (0 Bft)
18.10.2013 10:00 6,2 C 90 % 1020,4 hPa 0,0 l/m 0,0 km/h (0 Bft) NO 45 4,7 C 9,1 C 0,0 km/h (0 Bft)
18.10.2013 10:05 6,3 C 90 % 1020,4 hPa 0,0 l/m 0,0 km/h (0 Bft) NO 45 4,8 C 9,1 C 0,0 km/h (0 Bft)
18.10.2013 10:10 6,5 C 90 % 1020,4 hPa 0,0 l/m 0,0 km/h (0 Bft) NO 45 5,0 C 9,1 C 0,0 km/h (0 Bft)
18.10.2013 10:15 6,8 C 89 % 1020,4 hPa 0,0 l/m 0,0 km/h (0 Bft) NO 45 5,1 C 9,1 C 0,0 km/h (0 Bft)
18.10.2013 10:20 7,2 C 89 % 1020,4 hPa 0,0 l/m 0,0 km/h (0 Bft) NO 45 5,5 C 9,1 C 0,0 km/h (0 Bft)
18.10.2013 10:25 7,5 C 88 % 1019,7 hPa 0,0 l/m 0,0 km/h (0 Bft) NO 45 5,6 C 9,1 C 0,0 km/h (0 Bft)
18.10.2013 10:30 7,5 C 88 % 1019,7 hPa 0,0 l/m 0,0 km/h (0 Bft) NO 45 5,6 C 9,1 C 0,0 km/h (0 Bft)
18.10.2013 10:35 8,0 C 87 % 1019,7 hPa 0,0 l/m 0,0 km/h (0 Bft) NO 45 6,0 C 9,1 C 0,0 km/h (0 Bft)
18.10.2013 10:40 8,6 C 87 % 1019,7 hPa 0,0 l/m 0,0 km/h (0 Bft) NO 45 6,6 C 9,1 C 0,0 km/h (0 Bft)
18.10.2013 10:45 8,9 C 85 % 1018,4 hPa 0,0 l/m 0,0 km/h (0 Bft) NO 45 6,5 C 9,1 C 0,0 km/h (0 Bft)
18.10.2013 10:50 8,9 C 84 % 1018,4 hPa 0,0 l/m 0,0 km/h (0 Bft) NO 45 6,3 C 9,1 C 0,0 km/h (0 Bft)
18.10.2013 10:55 9,1 C 82 % 1018,4 hPa 0,0 l/m 0,0 km/h (0 Bft) NO 45 6,2 C 9,1 C 0,0 km/h (0 Bft)
18.10.2013 11:00 9,2 C 81 % 1018,4 hPa 0,0 l/m 0,0 km/h (0 Bft) NO 45 6,1 C 9,1 C 0,0 km/h (0 Bft)
18.10.2013 11:05 9,5 C 80 % 1018,8 hPa 0,0 l/m 0,0 km/h (0 Bft) NO 45 6,2 C 9,1 C 0,0 km/h (0 Bft)
18.10.2013 11:10 10,4 C 76 % 1018,8 hPa 0,0 l/m 0,0 km/h (0 Bft) NO 45 6,4 C 9,1 C 0,0 km/h (0 Bft)
18.10.2013 11:15 12,0 C 68 % 1018,8 hPa 0,0 l/m 0,0 km/h (0 Bft) NO 45 6,3 C 9,1 C 0,0 km/h (0 Bft)
18.10.2013 11:20 12,9 C 66 % 1018,8 hPa 0,0 l/m 0,0 km/h (0 Bft) NO 45 6,7 C 9,1 C 0,0 km/h (0 Bft)
18.10.2013 11:25 13,4 C 60 % 1018,2 hPa 0,0 l/m 0,0 km/h (0 Bft) NO 45 5,8 C 9,1 C 0,0 km/h (0 Bft)
18.10.2013 11:30 12,5 C 59 % 1018,2 hPa 0,0 l/m 0,0 km/h (0 Bft) NO 45 4,7 C 9,1 C 0,0 km/h (0 Bft)
18.10.2013 11:35 12,0 C 63 % 1018,2 hPa 0,0 l/m 0,0 km/h (0 Bft) NO 45 5,2 C 9,1 C 0,0 km/h (0 Bft)
18.10.2013 11:40 11,5 C 65 % 1018,2 hPa 0,0 l/m 0,0 km/h (0 Bft) NO 45 5,2 C 9,1 C 0,0 km/h (0 Bft)
18.10.2013 11:45 11,3 C 67 % 1017,4 hPa 0,0 l/m 0,0 km/h (0 Bft) NO 45 5,4 C 9,1 C 0,0 km/h (0 Bft)
18.10.2013 11:50 11,6 C 66 % 1017,4 hPa 0,0 l/m 0,0 km/h (0 Bft) NO 45 5,5 C 9,1 C 0,0 km/h (0 Bft)
18.10.2013 11:55 12,7 C 63 % 1017,4 hPa 0,0 l/m 0,0 km/h (0 Bft) NO 45 5,8 C 9,1 C 0,0 km/h (0 Bft)
18.10.2013 12:00 14,1 C 59 % 1017,4 hPa 0,0 l/m 0,0 km/h (0 Bft) NO 45 6,2 C 9,1 C 0,0 km/h (0 Bft)
18.10.2013 12:05 14,3 C 55 % 1016,7 hPa 0,0 l/m 0,0 km/h (0 Bft) NO 45 5,4 C 9,1 C 0,0 km/h (0 Bft)
18.10.2013 12:10 12,4 C 59 % 1016,7 hPa 0,0 l/m 0,0 km/h (0 Bft) NO 45 4,6 C 9,1 C 0,0 km/h (0 Bft)
18.10.2013 12:15 12,5 C 63 % 1016,7 hPa 0,0 l/m 0,0 km/h (0 Bft) NO 45 5,7 C 9,1 C 0,0 km/h (0 Bft)
18.10.2013 12:20 12,8 C 62 % 1016,7 hPa 0,0 l/m 0,0 km/h (0 Bft) NO 45 5,7 C 9,1 C 0,0 km/h (0 Bft)
18.10.2013 12:25 12,8 C 62 % 1016,0 hPa 0,0 l/m 0,0 km/h (0 Bft) NO 45 5,7 C 9,1 C 0,0 km/h (0 Bft)
18.10.2013 12:30 12,9 C 63 % 1016,0 hPa 0,0 l/m 0,0 km/h (0 Bft) NO 45 6,0 C 9,1 C 0,0 km/h (0 Bft)
18.10.2013 12:35 13,1 C 59 % 1016,0 hPa 0,0 l/m 0,0 km/h (0 Bft) NO 45 5,3 C 9,1 C 0,0 km/h (0 Bft)
18.10.2013 12:40 12,9 C 61 % 1016,0 hPa 0,0 l/m 0,0 km/h (0 Bft) NO 45 5,6 C 9,1 C 0,0 km/h (0 Bft)
18.10.2013 12:45 12,7 C 61 % 1015,1 hPa 0,0 l/m 0,0 km/h (0 Bft) NO 45 5,4 C 9,1 C 0,0 km/h (0 Bft)
18.10.2013 12:50 12,6 C 61 % 1015,1 hPa 0,0 l/m 0,0 km/h (0 Bft) NO 45 5,3 C 9,1 C 0,0 km/h (0 Bft)
18.10.2013 12:55 12,6 C 62 % 1015,1 hPa 0,0 l/m 0,0 km/h (0 Bft) NO 45 5,5 C 9,1 C 0,0 km/h (0 Bft)
18.10.2013 13:00 12,5 C 61 % 1015,1 hPa 0,0 l/m 0,0 km/h (0 Bft) NO 45 5,2 C 9,1 C 0,0 km/h (0 Bft)
18.10.2013 13:05 12,9 C 63 % 1014,5 hPa 0,0 l/m 0,0 km/h (0 Bft) NO 45 6,0 C 9,1 C 0,0 km/h (0 Bft)
18.10.2013 13:10 13,0 C 63 % 1014,5 hPa 0,0 l/m 0,0 km/h (0 Bft) NO 45 6,1 C 9,1 C 0,0 km/h (0 Bft)
18.10.2013 13:15 13,3 C 62 % 1014,5 hPa 0,0 l/m 0,0 km/h (0 Bft) NO 45 6,2 C 9,1 C 0,0 km/h (0 Bft)
18.10.2013 13:20 13,3 C 61 % 1014,5 hPa 0,0 l/m 0,0 km/h (0 Bft) NO 45 5,9 C 9,1 C 0,0 km/h (0 Bft)
18.10.2013 13:25 13,5 C 58 % 1013,8 hPa 0,0 l/m 0,0 km/h (0 Bft) NO 45 5,4 C 9,1 C 0,0 km/h (0 Bft)
18.10.2013 13:30 13,2 C 59 % 1013,8 hPa 0,0 l/m 0,0 km/h (0 Bft) NO 45 5,4 C 9,1 C 0,0 km/h (0 Bft)
18.10.2013 13:35 13,1 C 62 % 1013,8 hPa 0,0 l/m 0,0 km/h (0 Bft) NO 45 6,0 C 9,1 C 0,0 km/h (0 Bft)
18.10.2013 13:40 13,4 C 59 % 1013,8 hPa 0,0 l/m 0,0 km/h (0 Bft) NO 45 5,6 C 9,1 C 0,0 km/h (0 Bft)
18.10.2013 13:45 14,1 C 58 % 1013,3 hPa 0,0 l/m 0,0 km/h (0 Bft) NO 45 6,0 C 9,1 C 0,0 km/h (0 Bft)
18.10.2013 13:50 14,0 C 56 % 1013,3 hPa 0,0 l/m 0,0 km/h (0 Bft) NO 45 5,4 C 9,1 C 0,0 km/h (0 Bft)
18.10.2013 13:55 14,4 C 56 % 1013,3 hPa 0,0 l/m 0,0 km/h (0 Bft) NO 45 5,7 C 9,1 C 0,0 km/h (0 Bft)
18.10.2013 14:00 14,7 C 55 % 1013,3 hPa 0,0 l/m 0,0 km/h (0 Bft) NO 45 5,8 C 9,1 C 0,0 km/h (0 Bft)
18.10.2013 14:05 14,3 C 56 % 1012,9 hPa 0,0 l/m 0,0 km/h (0 Bft) NO 45 5,6 C 9,1 C 0,0 km/h (0 Bft)
18.10.2013 14:10 13,8 C 57 % 1012,9 hPa 0,0 l/m 0,0 km/h (0 Bft) NO 45 5,4 C 9,1 C 0,0 km/h (0 Bft)
18.10.2013 14:15 13,5 C 59 % 1012,9 hPa 0,0 l/m 0,0 km/h (0 Bft) NO 45 5,6 C 9,1 C 0,0 km/h (0 Bft)
18.10.2013 14:20 13,3 C 59 % 1012,9 hPa 0,0 l/m 0,0 km/h (0 Bft) NO 45 5,5 C 9,1 C 0,0 km/h (0 Bft)
18.10.2013 14:25 13,0 C 61 % 1012,8 hPa 0,0 l/m 0,0 km/h (0 Bft) NO 45 5,7 C 9,1 C 0,0 km/h (0 Bft)
18.10.2013 14:30 12,9 C 63 % 1012,8 hPa 0,0 l/m 0,0 km/h (0 Bft) NO 45 6,0 C 9,1 C 0,0 km/h (0 Bft)
18.10.2013 14:35 12,9 C 64 % 1012,8 hPa 0,0 l/m 0,0 km/h (0 Bft) NO 45 6,3 C 9,1 C 0,0 km/h (0 Bft)
18.10.2013 14:40 12,6 C 64 % 1012,8 hPa 0,0 l/m 0,0 km/h (0 Bft) NO 45 6,0 C 9,1 C 0,0 km/h (0 Bft)
18.10.2013 14:45 12,7 C 63 % 1011,9 hPa 0,0 l/m 0,0 km/h (0 Bft) NO 45 5,8 C 9,1 C 0,0 km/h (0 Bft)
18.10.2013 14:50 12,8 C 65 % 1011,9 hPa 0,0 l/m 0,0 km/h (0 Bft) NO 45 6,4 C 9,1 C 0,0 km/h (0 Bft)
18.10.2013 14:55 12,7 C 64 % 1011,9 hPa 0,0 l/m 0,0 km/h (0 Bft) NO 45 6,1 C 9,1 C 0,0 km/h (0 Bft)
18.10.2013 15:00 12,6 C 65 % 1011,9 hPa 0,0 l/m 0,0 km/h (0 Bft) NO 45 6,2 C 9,1 C 0,0 km/h (0 Bft)
18.10.2013 15:05 12,5 C 64 % 1011,8 hPa 0,0 l/m 0,0 km/h (0 Bft) NO 45 5,9 C 9,1 C 0,0 km/h (0 Bft)
18.10.2013 15:10 12,4 C 65 % 1011,8 hPa 0,0 l/m 0,0 km/h (0 Bft) NO 45 6,0 C 9,1 C 0,0 km/h (0 Bft)
18.10.2013 15:15 12,5 C 64 % 1011,8 hPa 0,0 l/m 0,0 km/h (0 Bft) NO 45 5,9 C 9,1 C 0,0 km/h (0 Bft)
18.10.2013 15:20 12,5 C 64 % 1011,8 hPa 0,0 l/m 0,0 km/h (0 Bft) NO 45 5,9 C 9,1 C 0,0 km/h (0 Bft)
18.10.2013 15:25 12,4 C 64 % 1011,9 hPa 0,0 l/m 0,0 km/h (0 Bft) NO 45 5,8 C 9,1 C 0,0 km/h (0 Bft)
18.10.2013 15:30 12,2 C 65 % 1011,9 hPa 0,0 l/m 0,0 km/h (0 Bft) NO 45 5,8 C 9,1 C 0,0 km/h (0 Bft)
18.10.2013 15:35 12,2 C 65 % 1011,9 hPa 0,0 l/m 0,0 km/h (0 Bft) NO 45 5,8 C 9,1 C 0,0 km/h (0 Bft)
18.10.2013 15:40 12,4 C 64 % 1011,9 hPa 0,0 l/m 0,0 km/h (0 Bft) NO 45 5,8 C 9,1 C 0,0 km/h (0 Bft)
18.10.2013 15:45 12,4 C 64 % 1012,1 hPa 0,0 l/m 0,0 km/h (0 Bft) NO 45 5,8 C 9,1 C 0,0 km/h (0 Bft)
18.10.2013 15:50 12,2 C 65 % 1012,1 hPa 0,0 l/m 0,0 km/h (0 Bft) NO 45 5,8 C 9,1 C 0,0 km/h (0 Bft)
18.10.2013 15:55 11,9 C 66 % 1012,1 hPa 0,0 l/m 0,0 km/h (0 Bft) NO 45 5,8 C 9,1 C 0,0 km/h (0 Bft)
18.10.2013 16:00 11,8 C 67 % 1012,1 hPa 0,0 l/m 0,0 km/h (0 Bft) NO 45 5,9 C 9,1 C 0,0 km/h (0 Bft)
18.10.2013 16:05 12,1 C 67 % 1012,4 hPa 0,0 l/m 0,0 km/h (0 Bft) NO 45 6,2 C 9,1 C 0,0 km/h (0 Bft)
18.10.2013 16:10 12,6 C 66 % 1012,4 hPa 0,0 l/m 0,0 km/h (0 Bft) NO 45 6,4 C 9,1 C 0,0 km/h (0 Bft)
18.10.2013 16:15 12,4 C 66 % 1012,4 hPa 0,0 l/m 0,0 km/h (0 Bft) NO 45 6,2 C 9,1 C 0,0 km/h (0 Bft)
18.10.2013 16:20 12,5 C 66 % 1012,4 hPa 0,0 l/m 0,0 km/h (0 Bft) NO 45 6,3 C 9,1 C 0,0 km/h (0 Bft)
18.10.2013 16:25 12,4 C 67 % 1012,6 hPa 0,0 l/m 0,0 km/h (0 Bft) NO 45 6,4 C 9,1 C 0,0 km/h (0 Bft)
18.10.2013 16:30 12,5 C 67 % 1012,6 hPa 0,0 l/m 0,0 km/h (0 Bft) NO 45 6,5 C 9,1 C 0,0 km/h (0 Bft)
18.10.2013 16:35 12,3 C 67 % 1012,6 hPa 0,0 l/m 0,0 km/h (0 Bft) NO 45 6,4 C 9,1 C 0,0 km/h (0 Bft)
18.10.2013 16:40 12,3 C 67 % 1012,6 hPa 0,0 l/m 0,0 km/h (0 Bft) NO 45 6,4 C 9,1 C 0,0 km/h (0 Bft)
18.10.2013 16:45 12,0 C 68 % 1012,8 hPa 0,0 l/m 0,0 km/h (0 Bft) NO 45 6,3 C 9,1 C 0,0 km/h (0 Bft)
18.10.2013 16:50 11,8 C 68 % 1012,8 hPa 0,0 l/m 0,0 km/h (0 Bft) NO 45 6,1 C 9,1 C 0,0 km/h (0 Bft)
18.10.2013 16:55 11,8 C 68 % 1012,8 hPa 0,0 l/m 0,0 km/h (0 Bft) NO 45 6,1 C 9,1 C 0,0 km/h (0 Bft)
18.10.2013 17:00 11,7 C 68 % 1012,8 hPa 0,0 l/m 0,0 km/h (0 Bft) NO 45 6,0 C 9,1 C 0,0 km/h (0 Bft)
18.10.2013 17:05 11,5 C 69 % 1012,9 hPa 0,0 l/m 0,0 km/h (0 Bft) NO 45 6,0 C 9,1 C 0,0 km/h (0 Bft)
18.10.2013 17:10 11,4 C 69 % 1012,9 hPa 0,0 l/m 0,0 km/h (0 Bft) NO 45 5,9 C 9,1 C 0,0 km/h (0 Bft)
18.10.2013 17:15 11,2 C 70 % 1012,9 hPa 0,0 l/m 0,0 km/h (0 Bft) NO 45 5,9 C 9,1 C 0,0 km/h (0 Bft)
18.10.2013 17:20 11,2 C 70 % 1012,9 hPa 0,0 l/m 0,0 km/h (0 Bft) NO 45 5,9 C 9,1 C 0,0 km/h (0 Bft)
18.10.2013 17:25 11,1 C 71 % 1013,2 hPa 0,0 l/m 0,0 km/h (0 Bft) NO 45 6,0 C 9,1 C 0,0 km/h (0 Bft)
18.10.2013 17:30 10,9 C 71 % 1013,2 hPa 0,0 l/m 0,0 km/h (0 Bft) NO 45 5,9 C 9,1 C 0,0 km/h (0 Bft)
18.10.2013 17:35 10,8 C 72 % 1013,2 hPa 0,0 l/m 0,0 km/h (0 Bft) NO 45 6,0 C 9,1 C 0,0 km/h (0 Bft)
18.10.2013 17:40 10,7 C 72 % 1013,2 hPa 0,0 l/m 0,0 km/h (0 Bft) NO 45 5,9 C 9,1 C 0,0 km/h (0 Bft)
18.10.2013 17:45 10,6 C 73 % 1013,4 hPa 0,0 l/m 0,0 km/h (0 Bft) NO 45 6,0 C 9,1 C 0,0 km/h (0 Bft)
18.10.2013 17:50 10,4 C 73 % 1013,4 hPa 0,0 l/m 0,0 km/h (0 Bft) NO 45 5,8 C 9,1 C 0,0 km/h (0 Bft)
18.10.2013 17:55 10,1 C 74 % 1013,4 hPa 0,0 l/m 0,0 km/h (0 Bft) NO 45 5,7 C 9,1 C 0,0 km/h (0 Bft)
18.10.2013 18:00 9,9 C 75 % 1013,4 hPa 0,0 l/m 0,0 km/h (0 Bft) NO 45 5,7 C 9,1 C 0,0 km/h (0 Bft)
18.10.2013 18:05 9,7 C 76 % 1019,7 hPa 0,0 l/m 0,0 km/h (0 Bft) NO 45 5,7 C 9,1 C 0,0 km/h (0 Bft)
18.10.2013 18:10 9,4 C 76 % 1019,7 hPa 0,0 l/m 0,0 km/h (0 Bft) NO 45 5,4 C 9,1 C 0,0 km/h (0 Bft)
18.10.2013 18:15 9,2 C 77 % 1019,7 hPa 0,0 l/m 0,0 km/h (0 Bft) NO 45 5,4 C 9,1 C 0,0 km/h (0 Bft)
18.10.2013 18:20 9,1 C 77 % 1019,7 hPa 0,0 l/m 0,0 km/h (0 Bft) NO 45 5,3 C 9,1 C 0,0 km/h (0 Bft)
18.10.2013 18:25 8,7 C 78 % 1019,6 hPa 0,0 l/m 0,0 km/h (0 Bft) NO 45 5,1 C 9,1 C 0,0 km/h (0 Bft)
18.10.2013 18:30 8,1 C 78 % 1019,6 hPa 0,0 l/m 0,0 km/h (0 Bft) NO 45 4,5 C 9,1 C 0,0 km/h (0 Bft)
18.10.2013 18:35 8,1 C 79 % 1019,6 hPa 0,0 l/m 0,0 km/h (0 Bft) NO 45 4,7 C 9,1 C 0,0 km/h (0 Bft)
18.10.2013 18:40 8,1 C 80 % 1019,6 hPa 0,0 l/m 0,0 km/h (0 Bft) NO 45 4,9 C 9,1 C 0,0 km/h (0 Bft)
18.10.2013 18:45 7,6 C 80 % 1019,8 hPa 0,0 l/m 0,0 km/h (0 Bft) NO 45 4,4 C 9,1 C 0,0 km/h (0 Bft)
18.10.2013 18:50 7,5 C 81 % 1019,8 hPa 0,0 l/m 0,0 km/h (0 Bft) NO 45 4,5 C 9,1 C 0,0 km/h (0 Bft)
18.10.2013 18:55 7,5 C 81 % 1019,8 hPa 0,0 l/m 0,0 km/h (0 Bft) NO 45 4,5 C 9,1 C 0,0 km/h (0 Bft)
18.10.2013 19:00 7,1 C 81 % 1019,8 hPa 0,0 l/m 0,0 km/h (0 Bft) NO 45 4,1 C 9,1 C 0,0 km/h (0 Bft)
18.10.2013 19:05 6,7 C 82 % 1019,6 hPa 0,0 l/m 0,0 km/h (0 Bft) NO 45 3,8 C 9,1 C 0,0 km/h (0 Bft)
18.10.2013 19:10 6,5 C 82 % 1019,6 hPa 0,0 l/m 0,0 km/h (0 Bft) NO 45 3,7 C 9,1 C 0,0 km/h (0 Bft)
18.10.2013 19:15 6,2 C 83 % 1019,6 hPa 0,0 l/m 0,0 km/h (0 Bft) NO 45 3,5 C 9,1 C 0,0 km/h (0 Bft)
18.10.2013 19:20 6,0 C 83 % 1019,6 hPa 0,0 l/m 0,0 km/h (0 Bft) NO 45 3,3 C 9,1 C 0,0 km/h (0 Bft)
18.10.2013 19:25 5,6 C 84 % 1019,8 hPa 0,0 l/m 0,0 km/h (0 Bft) NO 45 3,1 C 9,1 C 0,0 km/h (0 Bft)
18.10.2013 19:30 5,6 C 85 % 1019,8 hPa 0,0 l/m 0,0 km/h (0 Bft) NO 45 3,3 C 9,1 C 0,0 km/h (0 Bft)
18.10.2013 19:35 5,5 C 85 % 1019,8 hPa 0,0 l/m 0,0 km/h (0 Bft) NO 45 3,2 C 9,1 C 0,0 km/h (0 Bft)
18.10.2013 19:40 5,5 C 86 % 1019,8 hPa 0,0 l/m 0,0 km/h (0 Bft) NO 45 3,3 C 9,1 C 0,0 km/h (0 Bft)
18.10.2013 19:45 5,3 C 86 % 1019,7 hPa 0,0 l/m 0,0 km/h (0 Bft) NO 45 3,2 C 9,1 C 0,0 km/h (0 Bft)
18.10.2013 19:50 5,3 C 86 % 1019,7 hPa 0,0 l/m 0,0 km/h (0 Bft) NO 45 3,2 C 9,1 C 0,0 km/h (0 Bft)
18.10.2013 19:55 5,0 C 86 % 1019,7 hPa 0,0 l/m 0,0 km/h (0 Bft) NO 45 2,9 C 9,1 C 0,0 km/h (0 Bft)
18.10.2013 20:00 5,0 C 86 % 1019,7 hPa 0,0 l/m 0,0 km/h (0 Bft) NO 45 2,9 C 9,1 C 0,0 km/h (0 Bft)
18.10.2013 20:05 5,0 C 87 % 1019,6 hPa 0,0 l/m 0,0 km/h (0 Bft) NO 45 3,0 C 9,1 C 0,0 km/h (0 Bft)
18.10.2013 20:10 4,7 C 87 % 1019,6 hPa 0,0 l/m 0,0 km/h (0 Bft) NO 45 2,7 C 9,1 C 0,0 km/h (0 Bft)
18.10.2013 20:15 4,6 C 87 % 1019,6 hPa 0,0 l/m 0,0 km/h (0 Bft) NO 45 2,6 C 9,1 C 0,0 km/h (0 Bft)
18.10.2013 20:20 4,5 C 88 % 1019,6 hPa 0,0 l/m 0,0 km/h (0 Bft) NO 45 2,7 C 9,1 C 0,0 km/h (0 Bft)
18.10.2013 20:25 4,6 C 88 % 1019,4 hPa 0,0 l/m 0,0 km/h (0 Bft) NO 45 2,8 C 9,1 C 0,0 km/h (0 Bft)
18.10.2013 20:30 4,6 C 88 % 1019,4 hPa 0,0 l/m 0,0 km/h (0 Bft) NO 45 2,8 C 9,1 C 0,0 km/h (0 Bft)
18.10.2013 20:35 4,2 C 88 % 1019,4 hPa 0,0 l/m 0,0 km/h (0 Bft) NO 45 2,4 C 9,1 C 0,0 km/h (0 Bft)
18.10.2013 20:40 4,1 C 88 % 1019,4 hPa 0,0 l/m 0,0 km/h (0 Bft) NO 45 2,3 C 9,1 C 0,0 km/h (0 Bft)
18.10.2013 20:45 4,2 C 88 % 1019,6 hPa 0,0 l/m 0,0 km/h (0 Bft) NO 45 2,4 C 9,1 C 0,0 km/h (0 Bft)
18.10.2013 20:50 4,2 C 88 % 1019,6 hPa 0,0 l/m 0,0 km/h (0 Bft) NO 45 2,4 C 9,1 C 0,0 km/h (0 Bft)
18.10.2013 20:55 3,9 C 89 % 1019,6 hPa 0,0 l/m 0,0 km/h (0 Bft) NO 45 2,3 C 9,1 C 0,0 km/h (0 Bft)
18.10.2013 21:00 3,7 C 89 % 1019,6 hPa 0,0 l/m 0,0 km/h (0 Bft) NO 45 2,1 C 9,1 C 0,0 km/h (0 Bft)
18.10.2013 21:05 3,9 C 89 % 1019,4 hPa 0,0 l/m 0,0 km/h (0 Bft) NO 45 2,3 C 9,1 C 0,0 km/h (0 Bft)
18.10.2013 21:10 3,6 C 89 % 1019,4 hPa 0,0 l/m 0,0 km/h (0 Bft) NO 45 2,0 C 9,1 C 0,0 km/h (0 Bft)
18.10.2013 21:15 3,6 C 89 % 1019,4 hPa 0,0 l/m 0,0 km/h (0 Bft) NO 45 2,0 C 9,1 C 0,0 km/h (0 Bft)
18.10.2013 21:20 3,7 C 89 % 1019,4 hPa 0,0 l/m 0,0 km/h (0 Bft) NO 45 2,1 C 9,1 C 0,0 km/h (0 Bft)
18.10.2013 21:25 3,6 C 89 % 1019,4 hPa 0,0 l/m 0,0 km/h (0 Bft) NO 45 2,0 C 9,1 C 0,0 km/h (0 Bft)
18.10.2013 21:30 3,8 C 90 % 1019,4 hPa 0,0 l/m 0,0 km/h (0 Bft) NO 45 2,3 C 9,1 C 0,0 km/h (0 Bft)
18.10.2013 21:35 3,6 C 90 % 1019,4 hPa 0,0 l/m 0,0 km/h (0 Bft) NO 45 2,1 C 9,1 C 0,0 km/h (0 Bft)
18.10.2013 21:40 3,1 C 89 % 1019,4 hPa 0,0 l/m 0,0 km/h (0 Bft) NO 45 1,5 C 9,1 C 0,0 km/h (0 Bft)
18.10.2013 21:45 3,2 C 90 % 1019,1 hPa 0,0 l/m 0,0 km/h (0 Bft) NO 45 1,7 C 9,1 C 0,0 km/h (0 Bft)
18.10.2013 21:50 3,2 C 90 % 1019,1 hPa 0,0 l/m 0,0 km/h (0 Bft) NO 45 1,7 C 9,1 C 0,0 km/h (0 Bft)
18.10.2013 21:55 3,4 C 90 % 1019,1 hPa 0,0 l/m 0,0 km/h (0 Bft) NO 45 1,9 C 9,1 C 0,0 km/h (0 Bft)
18.10.2013 22:00 4,0 C 90 % 1019,1 hPa 0,0 l/m 0,0 km/h (0 Bft) NO 45 2,5 C 9,1 C 0,0 km/h (0 Bft)
18.10.2013 22:05 3,9 C 91 % 1019,2 hPa 0,0 l/m 0,0 km/h (0 Bft) NO 45 2,6 C 9,1 C 0,0 km/h (0 Bft)
18.10.2013 22:10 3,8 C 91 % 1019,2 hPa 0,0 l/m 0,0 km/h (0 Bft) NO 45 2,5 C 9,1 C 0,0 km/h (0 Bft)
18.10.2013 22:15 3,6 C 91 % 1019,2 hPa 0,0 l/m 0,0 km/h (0 Bft) NO 45 2,3 C 9,1 C 0,0 km/h (0 Bft)
18.10.2013 22:20 3,5 C 91 % 1019,2 hPa 0,0 l/m 0,0 km/h (0 Bft) NO 45 2,2 C 9,1 C 0,0 km/h (0 Bft)
18.10.2013 22:25 4,0 C 91 % 1019,3 hPa 0,0 l/m 0,0 km/h (0 Bft) NO 45 2,7 C 9,1 C 0,0 km/h (0 Bft)
18.10.2013 22:30 3,7 C 91 % 1019,3 hPa 0,0 l/m 0,0 km/h (0 Bft) NO 45 2,4 C 9,1 C 0,0 km/h (0 Bft)
18.10.2013 22:35 3,5 C 91 % 1019,3 hPa 0,0 l/m 0,0 km/h (0 Bft) NO 45 2,2 C 9,1 C 0,0 km/h (0 Bft)
18.10.2013 22:40 3,2 C 91 % 1019,3 hPa 0,0 l/m 0,0 km/h (0 Bft) NO 45 1,9 C 9,1 C 0,0 km/h (0 Bft)
18.10.2013 22:45 3,3 C 91 % 1019,1 hPa 0,0 l/m 0,0 km/h (0 Bft) NO 45 2,0 C 9,1 C 0,0 km/h (0 Bft)
18.10.2013 22:50 3,2 C 91 % 1019,1 hPa 0,0 l/m 0,0 km/h (0 Bft) NO 45 1,9 C 9,1 C 0,0 km/h (0 Bft)
18.10.2013 22:55 3,0 C 91 % 1019,1 hPa 0,0 l/m 0,0 km/h (0 Bft) NO 45 1,7 C 9,1 C 0,0 km/h (0 Bft)
18.10.2013 23:00 3,1 C 91 % 1019,1 hPa 0,0 l/m 0,0 km/h (0 Bft) NO 45 1,8 C 9,1 C 0,0 km/h (0 Bft)
18.10.2013 23:05 3,4 C 91 % 1019,0 hPa 0,0 l/m 0,0 km/h (0 Bft) NO 45 2,1 C 9,1 C 0,0 km/h (0 Bft)
18.10.2013 23:10 3,4 C 91 % 1019,0 hPa 0,0 l/m 0,0 km/h (0 Bft) NO 45 2,1 C 9,1 C 0,0 km/h (0 Bft)
18.10.2013 23:15 3,3 C 91 % 1019,0 hPa 0,0 l/m 0,0 km/h (0 Bft) NO 45 2,0 C 9,1 C 0,0 km/h (0 Bft)
18.10.2013 23:20 3,2 C 91 % 1019,0 hPa 0,0 l/m 0,0 km/h (0 Bft) NO 45 1,9 C 9,1 C 0,0 km/h (0 Bft)
18.10.2013 23:25 3,0 C 91 % 1018,9 hPa 0,0 l/m 0,0 km/h (0 Bft) NO 45 1,7 C 9,1 C 0,0 km/h (0 Bft)
18.10.2013 23:30 3,2 C 92 % 1018,9 hPa 0,0 l/m 0,0 km/h (0 Bft) NO 45 2,0 C 9,1 C 0,0 km/h (0 Bft)
18.10.2013 23:35 3,8 C 92 % 1018,9 hPa 0,0 l/m 0,0 km/h (0 Bft) NO 45 2,6 C 9,1 C 0,0 km/h (0 Bft)
18.10.2013 23:40 4,0 C 92 % 1018,9 hPa 0,0 l/m 0,0 km/h (0 Bft) NO 45 2,8 C 9,1 C 0,0 km/h (0 Bft)
18.10.2013 23:45 3,2 C 92 % 1018,8 hPa 0,0 l/m 0,0 km/h (0 Bft) NO 45 2,0 C 9,1 C 0,0 km/h (0 Bft)
18.10.2013 23:50 2,9 C 93 % 1018,8 hPa 0,0 l/m 0,0 km/h (0 Bft) NO 45 1,9 C 9,1 C 0,0 km/h (0 Bft)
18.10.2013 23:55 2,7 C 93 % 1018,8 hPa 0,0 l/m 0,0 km/h (0 Bft) NO 45 1,7 C 9,1 C 0,0 km/h (0 Bft)
_ Min-Zeit 23:55 14:00 15:20 - 23:55 - - 05:10 05:10 23:55
Minimum _ 2,7 C 55 % 1011,8 hPa - 0,0 km/h (0 Bft) - - 1,2 C 2,6 C 0,0 km/h (0 Bft)
_ Max-Zeit 14:00 23:55 09:40 23:55 01:40 - - 11:20 23:55 03:00
Maximum _ 14,7 C 93 % 1020,5 hPa 0,0 l/m 3,5 km/h
O-SO (1 Bft)
- - 6,7 C 9,1 C 6,8 km/h
O (2 Bft)
Durchschnitt _ 7,0 C 81 % 1018,2 hPa #0,0 l/m 0,4 km/h (0 Bft) O - 3,9 C 7,3 C 0,7 km/h (0 Bft)